2024-167C

Last updated on Fri Oct 04 2024 00:02:04 GMT+0000 (Coordinated Universal Time)

1 61184U 24167C 24276.20327218 -.00000006 00000+0 00000+0 0 9991 2 61184 55.4115 238.4195 0009849 4.8685 352.2876 1.72615565 232
UTC large
Height (km)
Speed (km/s)
/
Latitude / Longitude
Inclination (degrees)
Orbital Period (minutes)
Azimuth
Elevation
Range (km)
Doppler Factor

Next 0 passes for location: London (51.5072 / 0.1276)

Sorry there are no passes over London.